Location: Newark
(55.7167°N, 12.5667°E)
Time: 12:21:36
(UTC+00:00)

N. Korean satellite - Pass Details

Date: 14 December 2019
Orbit: 454 x 508 km, 97.2° (Epoch: 19 January)

Event Time Altitude Azimuth Distance (km) Brightness Sun altitude
Rises 06:22:32 0° 5° (N) 2,557 10.0 -8.7°
Reaches altitude 10° 06:24:55 10° 350° (N) 1,661 8.9 -8.4°
Maximum altitude 06:27:43 22° 298° (WNW) 1,080 7.7 -8.1°
Drops below altitude 10° 06:30:28 10° 246° (WSW) 1,628 8.9 -7.8°
Sets 06:32:47 0° 231° (SW) 2,490 10.0 -7.5°
